User: anonymous   Login
Location: Unspecified
(0.0000°N, 0.0000°E)
Time: 15:50:11
(UTC+00:00)
Language:

SPROUT - Orbit

View from above orbital plane
View from above orbital plane
View from above satellite
View from above satellite

Ground track
Ground track

The orbit data is extracted from the following two-line orbital elements,

1 39770U 14029E   18203.52034330  .00000537  00000-0  66179-4 0  9994
2 39770  97.8788 304.2768 0010542  91.6116 268.6315 14.86903429225614
Epoch (UTC): 22 July 2018 12:29:17
Eccentricity: 0.0010542
inclination: 97.8788°
perigee height: 600 km
apogee height: 615 km
right ascension of ascending node: 304.2768°
argument of perigee: 91.6116°
revolutions per day: 14.86903429
mean anomaly at epoch: 268.6315°
orbit number at epoch: 22561

The dashed part of the orbit path shows where the satellite is in the earth's shadow,  

DLR